Temperature
15 15 15 16 16 16 16 16 17 18 18 17 16 16 15 15 15 15 15 15 15 15 15 15 14 14 14 14 14 14 14 14 14 14 14 14 14 14
15 15 15 15 15 15 16 16 16 17 17 17 16 16 15 15 15 15 14 15 15 15 15 14 14 14 14 14 14 14 14 14 14 14 14 14 14 14
15 15 15 15 15 15 15 15 15 16 16 16 16 15 15 15 15 14 14 14 15 15 15 15 14 14 14 14 14 14 14 14 14 14 14 14 14 14
15 15 15 15 15 15 15 15 15 15 15 15 16 15 14 14 14 14 14 15 15 15 15 15 14 14 14 14 14 14 14 14 14 14 14 14 13 13
15 15 15 15 15 15 15 15 15 15 15 15 15 15 15 14 14 14 14 14 14 15 14 14 14 14 14 14 14 14 14 14 14 13 13 13 13 13
15 15 15 14 14 14 14 14 14 14 14 14 15 15 15 14 14 14 14 14 14 14 14 14 14 14 14 14 14 14 14 14 14 13 13 13 13 13
15 15 15 15 15 14 14 14 14 14 15 15 15 15 15 14 14 14 14 14 14 14 14 14 14 14 14 14 14 14 14 14 13 13 13 13 13 13
15 15 15 15 15 15 15 14 14 14 14 14 15 15 14 14 14 14 14 14 14 14 14 14 14 14 14 13 13 13 13 13 13 13 13 13 13 13
15 14 14 15 14 14 14 14 14 14 14 14 14 14 14 13 13 13 13 13 13 13 13 13 13 13 13 14 13 13 13 13 13 13 13 13 13 13
14 14 14 14 14 14 14 13 13 13 14 13 13 13 13 13 13 12 12 12 12 12 12 12 13 13 13 13 13 12 13 13 13 13 13 13 13 13
14 14 13 14 14 13 13 13 13 13 13 13 13 13 13 13 12 12 12 12 12 12 12 12 12 12 12 13 13 12 12 12 12 12 12 12 12 12
13 13 13 13 13 13 13 12 12 12 12 12 12 12 12 12 12 12 11 11 11 12 12 12 12 12 12 12 12 12 12 12 12 12 12 12 12 11
13 13 12 12 12 12 12 12 12 12 12 11 11 11 11 11 11 11 11 10 10 11 11 11 11 11 11 11 12 12 11 11 11 11 11 11 11 11
12 12 12 12 12 12 12 11 11 11 11 11 11 11 11 11 11 10 10 10 10 10 10 10 10 10 10 10 11 11 11 11 11 11 11 11 11 11
12 12 11 11 11 11 11 11 11 11 10 10 11 11 10 10 10 10 9 9 9 9 9 9 9 9 9 9 10 10 10 10 10 10 10 11 11 11
11 11 11 11 11 11 11 11 10 10 10 10 10 10 10 9 9 9 9 9 9 9 9 9 9 8 8 9 9 9 9 10 10 10 10 10 10 10
11 10 10 11 11 10 10 10 10 10 9 9 9 9 9 9 9 9 8 8 8 9 9 9 9 8 8 8 8 9 9 9 10 10 9 10 10 10
10 10 10 10 10 10 10 10 9 9 9 9 8 8 8 8 8 8 8 8 8 8 8 8 8 8 8 8 8 8 9 9 9 9 9 9 9 10
9 10 10 9 9 9 9 9 9 9 8 8 8 8 8 8 8 8 8 8 8 8 7 7 7 7 7 8 9 8 8 8 8 8 9 9 9 9
9 9 9 9 8 8 8 8 8 8 8 7 7 7 7 7 7 7 7 7 7 7 7 7 7 7 7 7 7 7 8 7 7 8 8 8 9 9
8 8 8 8 7 7 7 7 7 7 7 7 7 7 7 7 7 7 6 6 6 6 6 6 6 6 6 6 6 7 7 7 7 7 7 7 8 8
7 7 7 7 7 6 6 6 7 7 6 6 6 6 6 6 6 6 6 6 6 5 6 6 6 6 6 6 6 6 7 7 7 7 7 7 7 8
7 6 6 6 6 6 6 6 6 6 6 5 5 5 5 5 5 5 5 5 5 5 5 5 5 5 5 6 6 6 6 7 7 7 8 8 8 8
Wind_Speed
7 7 7 5 5 5 6 6 6 6 5 5 5 4 6 5 3 7 8 9 11 11 11 11 11 12 12 12 13 13 13 13 14 14 14 14 14 14
6 5 6 6 5 6 6 6 6 7 6 3 4 4 4 6 6 7 8 8 13 14 14 14 14 14 14 14 15 15 15 15 15 15 15 15 16 16
8 8 8 7 6 6 6 6 6 6 7 6 5 4 5 7 6 7 10 10 12 17 16 15 15 16 16 16 16 17 17 17 17 17 17 17 17 17
9 9 9 8 8 8 7 7 6 6 7 8 6 6 7 8 8 8 10 11 11 11 16 16 17 17 18 18 18 18 19 19 19 19 19 19 19 19
10 10 10 9 10 9 8 8 7 8 8 8 8 6 7 7 8 9 10 9 12 11 15 18 19 19 19 20 20 21 21 21 21 21 21 21 21 21
10 10 10 11 11 10 9 9 9 9 8 9 9 8 8 8 7 9 9 8 9 11 11 12 15 20 22 23 23 23 23 23 22 22 22 22 22 22
10 10 11 10 8 8 9 9 9 9 9 9 9 9 9 7 8 8 9 9 9 9 10 11 11 12 15 21 25 25 24 23 23 23 23 23 23 24
10 10 10 10 10 10 10 9 9 10 11 10 10 10 9 9 8 9 9 10 11 8 9 11 11 12 12 15 14 17 21 22 23 23 23 24 24 24
9 9 9 9 11 11 11 12 12 12 12 12 12 12 10 8 8 11 10 12 12 11 9 13 12 13 13 15 13 14 18 21 22 23 23 24 24 24
9 8 8 8 7 8 9 10 11 11 12 12 12 13 11 9 9 10 12 13 14 12 12 14 13 13 13 14 14 17 20 22 24 24 24 24 24 25
8 7 7 7 5 5 8 10 11 10 10 11 12 12 12 11 10 10 11 12 13 12 11 12 13 13 13 13 14 17 21 24 25 25 25 25 25 23
6 6 5 6 4 5 8 9 11 10 8 8 9 12 14 14 14 13 13 13 13 13 11 10 12 12 13 13 12 12 13 18 24 25 26 26 25 19
5 5 4 6 6 7 8 8 7 7 8 9 9 9 9 9 9 10 10 11 12 13 11 10 12 12 13 14 13 13 12 13 14 16 22 26 26 20
4 4 2 4 6 7 7 6 7 8 8 8 9 9 9 9 8 8 10 12 12 14 13 12 12 12 14 15 15 14 13 13 14 15 14 16 20 25
4 2 2 4 5 7 8 9 8 7 7 8 8 9 8 8 8 8 10 11 13 15 16 14 13 13 13 15 16 16 16 15 15 15 15 15 14 14
5 4 7 8 8 7 6 7 7 7 7 8 8 8 8 8 8 9 9 9 11 11 12 14 14 14 14 16 15 16 16 15 15 15 15 15 15 15
3 5 5 5 5 5 5 5 6 6 7 7 8 8 8 8 9 9 9 10 11 12 12 11 12 13 14 15 16 16 16 16 15 14 14 16 16 16
5 5 5 6 6 6 6 7 7 7 7 7 8 9 9 9 9 9 9 10 11 12 12 12 12 12 13 14 15 17 15 16 15 15 15 16 17 16
5 5 5 5 6 7 7 8 8 7 7 8 9 9 9 10 10 10 10 10 11 12 12 11 12 12 15 16 15 12 13 14 15 15 15 15 16 16
4 5 5 5 6 7 7 8 8 8 8 8 9 9 9 10 10 10 10 11 12 12 13 12 12 12 14 16 16 16 14 16 15 16 16 15 15 16
5 5 6 6 6 7 7 8 8 9 9 9 9 9 10 10 10 10 11 12 12 13 13 13 12 13 13 13 14 15 15 14 15 15 16 15 16 15
6 6 6 7 7 8 8 8 9 9 9 9 9 9 10 10 11 12 12 12 11 12 14 13 13 13 12 14 16 17 17 16 15 17 19 18 15 14
7 7 7 8 8 8 8 9 10 10 10 10 10 10 10 10 10 11 12 12 12 13 14 13 13 12 13 13 15 15 18 17 14 13 13 16 21 23
Wind_Direction
221 217 234 233 238 242 246 254 262 259 239 202 222 210 227 237 200 244 246 204 216 230 237 242 247 251 255 258 260 261 261 261 262 261 260 256 256 256
229 232 235 234 229 233 236 241 252 265 270 250 223 226 235 258 207 240 254 214 225 231 237 243 249 253 256 257 258 259 259 259 260 261 261 258 256 255
218 218 223 238 232 228 228 232 236 244 255 257 244 230 230 257 250 250 254 250 243 219 226 238 247 253 255 256 258 258 258 258 258 259 259 258 257 256
219 218 219 216 222 238 234 233 235 241 251 259 257 243 228 239 248 256 261 255 261 219 214 231 242 248 252 254 255 256 257 257 258 258 258 258 257 257
220 219 220 220 223 226 231 235 234 233 240 253 254 252 247 242 247 251 256 259 264 248 218 226 235 242 248 250 251 252 254 255 256 257 257 258 258 257
224 224 225 226 227 229 228 233 240 244 241 248 254 251 246 241 244 256 258 247 255 266 259 250 240 236 242 245 247 249 250 252 253 255 256 257 257 257
224 227 229 228 234 236 241 235 235 241 246 248 252 255 252 249 252 260 267 272 262 261 266 263 255 250 245 240 240 244 246 248 251 253 256 257 257 257
227 228 229 221 225 229 248 261 262 250 252 258 259 260 263 264 268 270 271 270 272 263 263 268 269 269 265 263 247 230 235 243 249 252 255 256 257 256
230 231 235 227 216 228 225 229 244 251 254 259 265 268 271 268 272 268 266 272 275 279 274 271 269 268 268 267 250 234 236 243 249 253 255 256 256 255
233 232 236 242 233 236 240 237 238 236 234 239 252 262 269 277 273 270 276 273 268 264 261 268 272 273 272 272 258 238 239 244 248 252 255 256 256 256
233 231 233 235 228 233 247 252 255 252 239 232 241 254 267 272 269 271 270 270 272 272 263 265 273 276 275 273 269 246 238 242 246 249 251 252 254 256
225 226 222 237 227 213 240 253 259 264 268 257 243 248 254 251 237 243 259 267 273 277 275 270 274 279 279 274 272 270 257 246 242 244 246 248 249 254
234 233 224 193 220 226 240 252 261 272 272 270 268 264 259 255 249 243 247 259 270 274 282 285 281 279 278 281 280 277 275 274 267 257 246 242 240 239
250 258 248 173 213 227 232 241 254 264 264 266 267 268 269 268 266 263 259 259 261 268 276 278 277 277 279 281 281 280 276 274 272 272 271 256 239 234
266 283 263 221 234 236 227 230 240 252 263 268 271 275 278 280 280 273 266 261 259 261 264 262 264 270 271 274 278 280 280 276 271 270 270 268 265 259
257 238 223 231 239 251 241 231 241 255 264 270 275 280 282 280 273 273 276 277 276 275 267 262 261 265 268 271 273 276 276 275 274 273 271 271 268 264
271 259 256 252 247 249 253 255 258 256 256 265 274 277 278 278 279 279 278 278 277 280 282 277 269 265 265 270 273 272 274 275 275 276 273 271 268 266
266 264 268 272 276 282 283 280 276 274 275 278 277 276 278 278 279 280 279 279 281 283 285 286 286 284 278 270 255 268 273 276 277 275 273 272 272 270
259 274 281 284 285 284 285 287 288 287 286 281 279 279 279 279 278 279 279 280 281 285 288 291 290 287 285 285 281 259 278 284 284 281 278 273 274 275
279 290 291 291 291 292 293 293 292 290 287 285 282 281 280 280 281 282 282 284 287 289 288 287 284 283 285 288 291 291 278 277 279 279 280 280 278 276
307 306 304 304 302 301 299 295 293 292 291 290 287 287 286 285 286 286 287 287 285 285 286 286 288 288 287 285 282 282 283 271 265 270 277 279 279 279
308 304 304 302 299 296 295 295 295 294 293 289 289 290 290 288 288 288 288 290 288 287 289 290 293 290 285 282 283 286 288 286 275 256 251 255 266 273
315 312 306 300 298 298 300 301 300 298 296 293 291 289 288 289 291 292 291 288 286 287 289 292 293 291 285 281 283 285 288 289 286 283 274 252 241 247
Height
1560 1561 1562 1564 1564 1566 1566 1567 1568 1567 1567 1568 1568 1568 1568 1568 1567 1567 1567 1566 1565 1565 1565 1565 1564 1564 1563 1562 1561 1561 1560 1560 1559 1559 1558 1558 1558 1558
1556 1558 1559 1561 1562 1562 1563 1564 1565 1566 1565 1566 1566 1566 1565 1565 1564 1563 1563 1562 1561 1561 1561 1561 1560 1559 1559 1558 1557 1556 1556 1555 1554 1554 1553 1553 1553 1553
1553 1554 1555 1557 1558 1559 1560 1561 1561 1562 1562 1563 1563 1562 1560 1560 1561 1560 1559 1558 1558 1557 1556 1556 1555 1555 1554 1553 1552 1551 1551 1550 1549 1549 1548 1548 1547 1547
1550 1551 1552 1553 1554 1555 1556 1557 1558 1558 1559 1559 1559 1558 1557 1556 1555 1555 1556 1556 1555 1553 1551 1550 1550 1549 1548 1547 1547 1546 1545 1544 1544 1543 1542 1542 1541 1541
1546 1547 1548 1549 1550 1552 1552 1553 1554 1555 1554 1555 1554 1554 1554 1553 1552 1551 1551 1549 1549 1549 1546 1545 1544 1543 1542 1541 1540 1540 1539 1538 1537 1537 1536 1535 1535 1534
1543 1543 1544 1546 1547 1548 1548 1548 1550 1550 1550 1550 1550 1550 1549 1548 1547 1547 1546 1545 1544 1544 1542 1540 1538 1536 1535 1534 1533 1533 1532 1531 1530 1530 1529 1528 1527 1527
1538 1539 1540 1541 1542 1543 1544 1545 1545 1545 1546 1546 1545 1545 1544 1544 1543 1542 1541 1540 1539 1538 1536 1535 1534 1531 1530 1527 1526 1525 1525 1524 1523 1522 1521 1521 1520 1519
1533 1534 1535 1536 1536 1537 1538 1539 1540 1540 1541 1541 1540 1540 1539 1539 1538 1537 1536 1535 1533 1533 1530 1528 1528 1525 1524 1523 1521 1518 1517 1516 1515 1514 1513 1513 1512 1511
1529 1530 1531 1531 1531 1532 1532 1533 1533 1533 1534 1534 1534 1533 1533 1532 1531 1530 1529 1527 1525 1525 1523 1520 1520 1518 1517 1516 1513 1511 1510 1508 1507 1506 1505 1504 1503 1502
1524 1524 1525 1526 1526 1526 1526 1527 1527 1526 1527 1526 1526 1526 1526 1525 1524 1523 1522 1520 1518 1517 1516 1514 1512 1511 1509 1508 1506 1503 1502 1500 1499 1497 1496 1495 1494 1493
1519 1519 1520 1520 1520 1521 1521 1521 1521 1521 1521 1520 1519 1519 1519 1518 1517 1516 1515 1514 1511 1510 1510 1507 1505 1503 1501 1499 1498 1495 1493 1491 1490 1488 1487 1486 1485 1484
1514 1514 1514 1515 1515 1515 1515 1515 1515 1515 1515 1514 1513 1511 1511 1510 1509 1508 1507 1507 1504 1503 1502 1501 1498 1496 1493 1491 1490 1488 1485 1483 1481 1479 1478 1477 1476 1474
1510 1510 1510 1509 1509 1509 1510 1510 1509 1509 1508 1508 1507 1506 1505 1503 1502 1501 1500 1499 1498 1496 1496 1494 1491 1489 1487 1483 1482 1480 1478 1476 1473 1471 1469 1467 1466 1465
1506 1506 1506 1505 1505 1504 1504 1504 1504 1504 1503 1502 1501 1500 1499 1498 1496 1494 1493 1492 1490 1488 1487 1486 1483 1481 1479 1475 1473 1471 1469 1467 1465 1463 1461 1459 1457 1456
1502 1502 1501 1501 1500 1500 1499 1499 1499 1498 1498 1497 1495 1494 1493 1491 1490 1488 1486 1484 1482 1480 1479 1477 1475 1473 1471 1468 1465 1463 1461 1459 1457 1454 1452 1450 1448 1447
1498 1498 1497 1497 1496 1496 1495 1494 1494 1493 1492 1491 1489 1488 1487 1485 1483 1482 1480 1478 1476 1473 1472 1470 1468 1466 1463 1460 1458 1454 1452 1450 1448 1446 1443 1441 1439 1438
1495 1495 1495 1494 1493 1492 1491 1490 1489 1488 1486 1485 1483 1482 1480 1479 1477 1476 1474 1472 1470 1466 1464 1462 1460 1458 1455 1452 1449 1446 1444 1441 1440 1437 1434 1431 1429 1428
1492 1492 1491 1490 1489 1488 1487 1486 1485 1483 1482 1480 1478 1477 1475 1473 1471 1470 1468 1466 1463 1460 1458 1455 1453 1449 1446 1444 1442 1438 1436 1433 1431 1428 1425 1422 1419 1418
1489 1488 1487 1486 1485 1484 1482 1481 1480 1478 1476 1475 1473 1471 1469 1468 1466 1463 1462 1459 1457 1454 1452 1450 1447 1444 1440 1435 1433 1432 1428 1424 1421 1419 1416 1413 1410 1408
1486 1485 1483 1482 1481 1479 1478 1476 1475 1473 1471 1470 1468 1466 1464 1462 1460 1457 1455 1453 1450 1448 1445 1443 1440 1437 1434 1429 1425 1422 1420 1417 1413 1410 1407 1405 1402 1399
1483 1481 1480 1478 1477 1475 1474 1472 1470 1468 1466 1464 1462 1460 1458 1456 1454 1451 1449 1446 1444 1441 1438 1435 1433 1430 1426 1422 1417 1413 1411 1409 1405 1402 1399 1397 1393 1391
1480 1478 1476 1475 1473 1471 1469 1467 1465 1463 1461 1459 1457 1455 1453 1450 1448 1445 1443 1440 1438 1435 1431 1428 1425 1422 1419 1415 1410 1406 1402 1399 1397 1394 1391 1389 1386 1383
1476 1475 1473 1471 1469 1467 1465 1462 1460 1458 1456 1453 1451 1449 1447 1444 1442 1439 1436 1434 1431 1428 1425 1421 1418 1415 1412 1409 1404 1399 1395 1392 1389 1386 1383 1381 1379 1376